• In Uzbekistan
  • List of Countries
  • For 7 days
  • Water Temperature
  • Satellite Maps
  • Weather Map
  • Weather Widgets
  • user-avatar
    Login

    Hourly Weather Mayrhofen

    Today, 27 July, Thursday

    Time Temperature Precipitation Wind Pressure Humidity
    00:00 +4°C° 0.1 mm 2 mps 615 mmHg 94%
    01:00 +4°C° 0 mm 2 mps 614 mmHg 94%
    02:00 +3°C° 0 mm 2 mps 614 mmHg 93%
    03:00 +3°C° 0 mm 2 mps 614 mmHg 93%
    04:00 +2°C° 0 mm 2 mps 614 mmHg 92%
    05:00 +4°C° 0 mm 2 mps 615 mmHg 86%
    06:00 +6°C° 0 mm 2 mps 615 mmHg 79%
    07:00 +8°C° 0 mm 2 mps 616 mmHg 73%
    08:00 +10°C° 0.1 mm 2 mps 616 mmHg 66%
    09:00 +12°C° 0.1 mm 2 mps 617 mmHg 59%
    10:00 +14°C° 0.1 mm 1 mps 618 mmHg 52%
    11:00 +14°C° 0.4 mm 1 mps 617 mmHg 57%
    12:00 +13°C° 0.4 mm 1 mps 617 mmHg 61%
    13:00 +13°C° 0.4 mm 1 mps 617 mmHg 66%
    14:00 +13°C° 0.7 mm 1 mps 617 mmHg 69%
    15:00 +14°C° 0.7 mm 1 mps 617 mmHg 71%
    16:00 +14°C° 0.7 mm 1 mps 617 mmHg 74%
    17:00 +13°C° 0.2 mm 1 mps 617 mmHg 78%
    18:00 +13°C° 0.2 mm 1 mps 617 mmHg 81%
    19:00 +12°C° 0.2 mm 1 mps 617 mmHg 85%
    20:00 +12°C° 0.6 mm 1 mps 617 mmHg 87%
    21:00 +11°C° 0.6 mm 1 mps 617 mmHg 89%
    22:00 +10°C° 0.6 mm 1 mps 617 mmHg 92%
    23:00 +10°C° 0.2 mm 1 mps 617 mmHg 92%

    Tomorrow, 28 July, Friday

    Time Temperature Precipitation Wind Pressure Humidity
    00:00 +9°C° 0.2 mm 1 mps 617 mmHg 92%
    01:00 +9°C° 0.2 mm 1 mps 617 mmHg 93%
    02:00 +9°C° 0 mm 1 mps 617 mmHg 93%
    03:00 +8°C° 0 mm 1 mps 616 mmHg 93%
    04:00 +8°C° 0 mm 1 mps 616 mmHg 94%
    05:00 +9°C° 0 mm 1 mps 617 mmHg 91%
    06:00 +11°C° 0 mm 1 mps 618 mmHg 87%
    07:00 +12°C° 0 mm 1 mps 618 mmHg 84%
    08:00 +14°C° 0.1 mm 1 mps 619 mmHg 78%
    09:00 +15°C° 0.1 mm 1 mps 620 mmHg 72%
    10:00 +18°C° 0.1 mm 1 mps 621 mmHg 66%
    11:00 +18°C° 0.3 mm 1 mps 621 mmHg 65%
    12:00 +19°C° 0.3 mm 1 mps 621 mmHg 64%
    13:00 +19°C° 0.3 mm 1 mps 621 mmHg 63%
    14:00 +18°C° 0.5 mm 2 mps 621 mmHg 65%
    15:00 +18°C° 0.5 mm 2 mps 621 mmHg 66%
    16:00 +18°C° 0.5 mm 2 mps 621 mmHg 68%
    17:00 +17°C° 0.4 mm 2 mps 621 mmHg 74%
    18:00 +16°C° 0.4 mm 2 mps 621 mmHg 81%
    19:00 +15°C° 0.4 mm 2 mps 620 mmHg 87%
    20:00 +13°C° 0.1 mm 1 mps 620 mmHg 90%
    21:00 +12°C° 0.1 mm 1 mps 620 mmHg 94%
    22:00 +11°C° 0.1 mm 1 mps 620 mmHg 97%
    23:00 +11°C° 0 mm 1 mps 620 mmHg 96%

    Day after tomorrow, 29 July, Saturday

    Time Temperature Precipitation Wind Pressure Humidity
    00:00 +10°C° 0 mm 1 mps 620 mmHg 96%
    01:00 +10°C° 0 mm 1 mps 620 mmHg 96%
    02:00 +10°C° 0 mm 1 mps 620 mmHg 96%
    03:00 +10°C° 0 mm 1 mps 620 mmHg 95%
    04:00 +10°C° 0 mm 1 mps 620 mmHg 95%
    05:00 +11°C° 0 mm 1 mps 620 mmHg 92%
    06:00 +13°C° 0 mm 1 mps 621 mmHg 90%
    07:00 +14°C° 0 mm 1 mps 622 mmHg 87%
    08:00 +16°C° 0 mm 1 mps 623 mmHg 79%
    09:00 +19°C° 0 mm 1 mps 623 mmHg 71%
    10:00 +20°C° 0 mm 1 mps 624 mmHg 63%
    11:00 +20°C° 0.4 mm 2 mps 624 mmHg 62%
    12:00 +20°C° 0.4 mm 2 mps 624 mmHg 60%
    13:00 +20°C° 0.4 mm 2 mps 624 mmHg 59%
    14:00 +20°C° 1 mm 2 mps 624 mmHg 62%
    15:00 +21°C° 1 mm 1 mps 623 mmHg 66%
    16:00 +20°C° 1 mm 1 mps 623 mmHg 69%
    17:00 +19°C° 1.5 mm 1 mps 623 mmHg 76%
    18:00 +18°C° 1.5 mm 1 mps 622 mmHg 83%
    19:00 +15°C° 1.5 mm 1 mps 622 mmHg 89%
    20:00 +15°C° 0.9 mm 1 mps 622 mmHg 91%
    21:00 +14°C° 0.9 mm 1 mps 622 mmHg 93%
    22:00 +13°C° 0.9 mm 1 mps 622 mmHg 94%
    23:00 +13°C° 0.6 mm 2 mps 621 mmHg 95%

    30 July, Sunday

    Time Temperature Precipitation Wind Pressure Humidity
    00:00 +13°C° 0.6 mm 2 mps 621 mmHg 95%
    01:00 +13°C° 0.6 mm 2 mps 621 mmHg 95%
    02:00 +13°C° 0.4 mm 2 mps 621 mmHg 95%
    03:00 +13°C° 0.4 mm 2 mps 621 mmHg 94%
    04:00 +13°C° 0.4 mm 2 mps 620 mmHg 94%
    05:00 +13°C° 0.2 mm 2 mps 621 mmHg 92%
    06:00 +14°C° 0.2 mm 1 mps 621 mmHg 90%
    07:00 +15°C° 0.2 mm 1 mps 621 mmHg 88%
    08:00 +18°C° 0.3 mm 1 mps 622 mmHg 77%
    09:00 +20°C° 0.3 mm 1 mps 623 mmHg 65%
    10:00 +22°C° 0.3 mm 1 mps 623 mmHg 54%
    11:00 +22°C° 0.8 mm 1 mps 623 mmHg 56%
    12:00 +22°C° 0.8 mm 1 mps 623 mmHg 59%
    13:00 +22°C° 0.8 mm 1 mps 622 mmHg 61%
    14:00 +21°C° 1.6 mm 1 mps 622 mmHg 66%
    15:00 +20°C° 1.6 mm 1 mps 622 mmHg 72%
    16:00 +19°C° 1.6 mm 1 mps 621 mmHg 77%
    17:00 +18°C° 1.6 mm 1 mps 621 mmHg 82%
    18:00 +16°C° 1.6 mm 1 mps 621 mmHg 86%
    19:00 +15°C° 1.6 mm 0 mps 621 mmHg 90%
    20:00 +15°C° 0.7 mm 1 mps 621 mmHg 91%
    21:00 +14°C° 0.7 mm 1 mps 621 mmHg 91%
    22:00 +13°C° 0.7 mm 1 mps 621 mmHg 92%
    23:00 +13°C° 0.3 mm 1 mps 621 mmHg 91%

    31 July, Monday

    Time Temperature Precipitation Wind Pressure Humidity
    00:00 +13°C° 0.3 mm 1 mps 621 mmHg 91%
    01:00 +13°C° 0.3 mm 1 mps 621 mmHg 91%
    02:00 +12°C° 0 mm 1 mps 620 mmHg 91%
    03:00 +11°C° 0 mm 1 mps 620 mmHg 91%
    04:00 +11°C° 0 mm 1 mps 620 mmHg 91%
    05:00 +12°C° 0 mm 1 mps 620 mmHg 87%
    06:00 +14°C° 0 mm 1 mps 621 mmHg 83%
    07:00 +15°C° 0 mm 1 mps 622 mmHg 79%
    08:00 +18°C° 0 mm 1 mps 623 mmHg 69%
    09:00 +20°C° 0 mm 1 mps 623 mmHg 59%
    10:00 +23°C° 0 mm 1 mps 624 mmHg 49%
    11:00 +23°C° 0 mm 1 mps 624 mmHg 47%
    12:00 +24°C° 0 mm 2 mps 624 mmHg 45%
    13:00 +25°C° 0 mm 2 mps 624 mmHg 42%
    14:00 +25°C° 0.1 mm 2 mps 624 mmHg 44%
    15:00 +25°C° 0.1 mm 2 mps 624 mmHg 46%
    16:00 +24°C° 0.1 mm 2 mps 623 mmHg 48%
    17:00 +23°C° 0.1 mm 2 mps 623 mmHg 57%
    18:00 +20°C° 0.1 mm 2 mps 622 mmHg 65%
    19:00 +19°C° 0.1 mm 2 mps 622 mmHg 74%
    20:00 +17°C° 0 mm 2 mps 621 mmHg 79%
    21:00 +16°C° 0 mm 2 mps 621 mmHg 83%
    22:00 +13°C° 0 mm 3 mps 621 mmHg 88%
    23:00 +13°C° 0 mm 3 mps 621 mmHg 89%

    1 August, Tuesday

    Time Temperature Precipitation Wind Pressure Humidity
    00:00 +13°C° 0 mm 3 mps 620 mmHg 89%
    01:00 +13°C° 0 mm 3 mps 620 mmHg 90%
    02:00 +12°C° 0 mm 3 mps 620 mmHg 90%
    03:00 +13°C° 0 mm 2 mps 620 mmHg 90%
    04:00 +13°C° 0 mm 2 mps 620 mmHg 90%
    05:00 +14°C° 0 mm 2 mps 620 mmHg 87%
    06:00 +15°C° 0 mm 2 mps 621 mmHg 83%
    07:00 +16°C° 0 mm 2 mps 621 mmHg 79%
    08:00 +18°C° 0 mm 2 mps 622 mmHg 67%
    09:00 +20°C° 0 mm 2 mps 622 mmHg 55%
    10:00 +24°C° 0 mm 2 mps 623 mmHg 43%
    11:00 +25°C° 0 mm 3 mps 623 mmHg 41%
    12:00 +26°C° 0 mm 3 mps 623 mmHg 39%
    13:00 +27°C° 0 mm 3 mps 623 mmHg 37%
    14:00 +26°C° 0.2 mm 3 mps 623 mmHg 39%
    15:00 +26°C° 0.2 mm 3 mps 622 mmHg 41%
    16:00 +25°C° 0.2 mm 3 mps 622 mmHg 44%
    17:00 +22°C° 0.9 mm 3 mps 621 mmHg 54%
    18:00 +20°C° 0.9 mm 3 mps 621 mmHg 65%
    19:00 +18°C° 0.9 mm 3 mps 621 mmHg 75%
    20:00 +16°C° 1.4 mm 2 mps 621 mmHg 81%
    21:00 +15°C° 1.4 mm 2 mps 621 mmHg 87%
    22:00 +13°C° 1.4 mm 1 mps 621 mmHg 92%
    23:00 +13°C° 0.1 mm 1 mps 621 mmHg 93%
    Show more